Time,TemperatureF,DewpointF,PressureIn,WindDirection,WindDirectionDegrees,WindSpeedMPH,WindSpeedGustMPH,Humidity,HourlyPrecipIn,Conditions,Clouds,dailyrainin,SoftwareType,DateUTC
2013-02-19 00:00:00,18.5,3.4,30.10,WSW,254,0.0,15.0,51,0.00,,,0.00,Wunderground v.1.15,2013-02-19 05:00:00,
2013-02-19 00:05:00,18.4,3.7,30.10,WSW,255,0.0,15.0,52,0.00,,,0.00,Wunderground v.1.15,2013-02-19 05:05:00,
2013-02-19 00:10:00,18.1,4.2,30.10,WSW,255,0.0,15.0,54,0.00,,,0.00,Wunderground v.1.15,2013-02-19 05:10:00,
2013-02-19 00:20:00,18.0,3.7,30.10,WSW,255,0.0,15.0,53,0.00,,,0.00,Wunderground v.1.15,2013-02-19 05:20:00,
2013-02-19 00:30:00,18.0,4.1,30.11,WSW,255,0.0,15.0,54,0.00,,,0.00,Wunderground v.1.15,2013-02-19 05:30:00,
2013-02-19 00:35:00,18.0,4.1,30.11,WSW,255,0.0,15.0,54,0.00,,,0.00,Wunderground v.1.15,2013-02-19 05:35:00,
2013-02-19 00:40:00,17.9,4.0,30.11,WSW,255,0.0,15.0,54,0.00,,,0.00,Wunderground v.1.15,2013-02-19 05:40:00,
2013-02-19 00:50:00,17.9,4.0,30.11,WSW,255,0.0,15.0,54,0.00,,,0.00,Wunderground v.1.15,2013-02-19 05:50:00,
2013-02-19 01:00:00,17.9,4.8,30.11,WSW,254,0.0,15.0,56,0.00,,,0.00,Wunderground v.1.15,2013-02-19 06:00:00,
2013-02-19 01:05:00,17.9,4.8,30.12,WSW,254,0.0,15.0,56,0.00,,,0.00,Wunderground v.1.15,2013-02-19 06:05:00,
2013-02-19 01:15:00,18.4,4.5,30.12,WSW,255,1.0,15.0,54,0.00,,,0.00,Wunderground v.1.15,2013-02-19 06:15:00,
2013-02-19 01:20:00,18.2,4.7,30.12,WSW,255,0.0,15.0,55,0.00,,,0.00,Wunderground v.1.15,2013-02-19 06:20:00,
2013-02-19 01:30:00,17.7,4.6,30.12,WSW,255,0.0,15.0,56,0.00,,,0.00,Wunderground v.1.15,2013-02-19 06:30:00,
2013-02-19 01:35:00,17.3,5.0,30.12,WSW,255,0.0,15.0,58,0.00,,,0.00,Wunderground v.1.15,2013-02-19 06:35:00,
2013-02-19 01:40:00,16.9,5.0,30.12,WSW,254,0.0,15.0,59,0.00,,,0.00,Wunderground v.1.15,2013-02-19 06:40:00,
2013-02-19 07:25:00,20.3,11.1,30.08,WSW,254,0.0,15.0,67,0.00,,,0.00,Wunderground v.1.15,2013-02-19 12:25:00,
2013-02-19 07:35:00,20.8,10.9,30.07,WSW,255,0.0,15.0,65,0.00,,,0.00,Wunderground v.1.15,2013-02-19 12:35:00,
2013-02-19 07:45:00,21.3,11.4,30.07,WSW,255,0.0,15.0,65,0.00,,,0.00,Wunderground v.1.15,2013-02-19 12:45:00,
2013-02-19 07:55:00,22.4,11.3,30.07,WSW,255,0.0,15.0,62,0.00,,,0.00,Wunderground v.1.15,2013-02-19 12:55:00,
2013-02-19 08:05:00,23.4,10.8,30.07,WSW,255,0.0,15.0,58,0.00,,,0.00,Wunderground v.1.15,2013-02-19 13:05:00,
2013-02-19 08:15:00,24.2,9.5,30.06,WSW,255,0.0,15.0,53,0.00,,,0.00,Wunderground v.1.15,2013-02-19 13:15:00,
2013-02-19 08:20:00,25.0,9.0,30.06,WSW,254,0.0,15.0,50,0.00,,,0.00,Wunderground v.1.15,2013-02-19 13:20:00,
2013-02-19 08:30:00,26.1,9.5,30.06,WSW,254,0.0,15.0,49,0.00,,,0.00,Wunderground v.1.15,2013-02-19 13:30:00,
2013-02-19 08:40:00,26.5,9.4,30.06,WSW,254,0.0,15.0,48,0.00,,,0.00,Wunderground v.1.15,2013-02-19 13:40:00,
2013-02-19 08:45:00,26.9,9.8,30.06,WSW,254,0.0,15.0,48,0.00,,,0.00,Wunderground v.1.15,2013-02-19 13:45:00,
2013-02-19 08:55:00,27.6,9.5,30.06,West,269,0.0,15.0,46,0.00,,,0.00,Wunderground v.1.15,2013-02-19 13:55:00,
2013-02-19 09:05:00,28.1,10.4,30.05,West,269,0.0,15.0,47,0.00,,,0.00,Wunderground v.1.15,2013-02-19 14:05:00,
2013-02-19 09:10:00,28.7,10.5,30.05,ESE,103,0.0,15.0,46,0.00,,,0.00,Wunderground v.1.15,2013-02-19 14:10:00,
2013-02-19 09:20:00,29.2,11.4,30.04,West,273,0.0,15.0,47,0.00,,,0.00,Wunderground v.1.15,2013-02-19 14:20:00,
2013-02-19 09:25:00,29.5,11.2,30.04,West,272,1.0,15.0,46,0.00,,,0.00,Wunderground v.1.15,2013-02-19 14:25:00,
2013-02-19 09:35:00,30.5,11.7,30.04,West,279,0.0,15.0,45,0.00,,,0.00,Wunderground v.1.15,2013-02-19 14:35:00,
2013-02-19 09:45:00,30.8,12.4,30.04,West,281,1.0,15.0,46,0.00,,,0.00,Wunderground v.1.15,2013-02-19 14:45:00,
2013-02-19 09:50:00,31.2,11.8,30.04,West,261,0.0,15.0,44,0.00,,,0.00,Wunderground v.1.15,2013-02-19 14:50:00,
2013-02-19 09:55:00,31.5,13.1,30.03,West,259,1.0,15.0,46,0.00,,,0.00,Wunderground v.1.15,2013-02-19 14:55:00,
2013-02-19 10:05:00,32.2,13.2,30.03,ESE,103,1.0,15.0,45,0.00,,,0.00,Wunderground v.1.15,2013-02-19 15:05:00,
2013-02-19 10:15:00,33.0,14.4,30.03,NW,311,1.0,15.0,46,0.00,,,0.00,Wunderground v.1.15,2013-02-19 15:15:00,
2013-02-19 10:25:00,33.8,13.6,30.02,ESE,109,1.0,15.0,43,0.00,,,0.00,Wunderground v.1.15,2013-02-19 15:25:00,
2013-02-19 10:35:00,34.5,14.3,30.01,ENE,76,1.0,15.0,43,0.00,,,0.00,Wunderground v.1.15,2013-02-19 15:35:00,
2013-02-19 10:45:00,34.7,13.9,30.01,East,86,1.0,15.0,42,0.00,,,0.00,Wunderground v.1.15,2013-02-19 15:45:00,
2013-02-19 10:55:00,34.4,14.2,30.00,East,88,1.0,15.0,43,0.00,,,0.00,Wunderground v.1.15,2013-02-19 15:55:00,
2013-02-19 11:05:00,34.7,15.0,30.01,East,84,2.0,6.0,44,0.00,,,0.00,Wunderground v.1.15,2013-02-19 16:05:00,
2013-02-19 11:15:00,35.3,15.5,30.01,West,263,1.0,15.0,44,0.00,,,0.00,Wunderground v.1.15,2013-02-19 16:15:00,
2013-02-19 11:25:00,36.2,16.9,30.00,NW,323,1.0,15.0,45,0.00,,,0.00,Wunderground v.1.15,2013-02-19 16:25:00,
2013-02-19 11:35:00,37.1,17.2,29.99,East,88,1.0,15.0,44,0.00,,,0.00,Wunderground v.1.15,2013-02-19 16:35:00,
2013-02-19 11:45:00,37.5,18.1,29.98,East,99,1.0,15.0,45,0.00,,,0.00,Wunderground v.1.15,2013-02-19 16:45:00,
2013-02-19 11:55:00,37.9,19.4,29.97,East,96,3.0,15.0,47,0.00,,,0.00,Wunderground v.1.15,2013-02-19 16:55:00,
2013-02-19 12:00:00,38.3,18.8,29.96,East,97,2.0,2.0,45,0.00,,,0.00,Wunderground v.1.15,2013-02-19 17:00:00,
2013-02-19 12:10:00,38.4,19.4,29.95,East,94,2.0,2.0,46,0.00,,,0.00,Wunderground v.1.15,2013-02-19 17:10:00,
2013-02-19 12:20:00,38.7,19.2,29.96,East,88,2.0,15.0,45,0.00,,,0.00,Wunderground v.1.15,2013-02-19 17:20:00,
2013-02-19 12:30:00,38.9,20.4,29.94,East,90,2.0,2.0,47,0.00,,,0.00,Wunderground v.1.15,2013-02-19 17:30:00,
2013-02-19 12:40:00,39.0,21.4,29.94,East,96,2.0,2.0,49,0.00,,,0.00,Wunderground v.1.15,2013-02-19 17:40:00,
2013-02-19 12:50:00,39.2,21.6,29.93,East,95,2.0,2.0,49,0.00,,,0.00,Wunderground v.1.15,2013-02-19 17:50:00,
2013-02-19 13:00:00,39.2,22.6,29.93,ESE,115,3.0,3.0,51,0.00,,,0.00,Wunderground v.1.15,2013-02-19 18:00:00,
2013-02-19 13:10:00,39.6,23.4,29.92,ESE,102,1.0,15.0,52,0.00,,,0.00,Wunderground v.1.15,2013-02-19 18:10:00,
2013-02-19 13:20:00,39.8,24.5,29.92,East,95,2.0,15.0,54,0.00,,,0.00,Wunderground v.1.15,2013-02-19 18:20:00,
2013-02-19 13:30:00,40.0,25.6,29.91,ENE,70,1.0,1.0,56,0.00,,,0.00,Wunderground v.1.15,2013-02-19 18:30:00,
2013-02-19 13:40:00,39.8,25.4,29.90,ESE,107,2.0,2.0,56,0.00,,,0.00,Wunderground v.1.15,2013-02-19 18:40:00,
2013-02-19 13:50:00,39.9,25.9,29.90,SW,221,2.0,2.0,57,0.00,,,0.00,Wunderground v.1.15,2013-02-19 18:50:00,
2013-02-19 13:55:00,40.0,26.0,29.90,East,85,1.0,15.0,57,0.00,,,0.00,Wunderground v.1.15,2013-02-19 18:55:00,
2013-02-19 14:05:00,39.9,25.9,29.89,East,95,1.0,2.0,57,0.00,,,0.00,Wunderground v.1.15,2013-02-19 19:05:00,
2013-02-19 14:15:00,40.2,26.2,29.88,East,96,1.0,15.0,57,0.00,,,0.00,Wunderground v.1.15,2013-02-19 19:15:00,
2013-02-19 14:20:00,40.4,26.4,29.88,East,96,2.0,2.0,57,0.00,,,0.00,Wunderground v.1.15,2013-02-19 19:20:00,
2013-02-19 14:30:00,40.6,27.0,29.88,East,96,1.0,1.0,58,0.00,,,0.00,Wunderground v.1.15,2013-02-19 19:30:00,
2013-02-19 14:35:00,40.6,27.0,29.88,East,95,1.0,15.0,58,0.00,,,0.00,Wunderground v.1.15,2013-02-19 19:35:00,
2013-02-19 14:45:00,40.5,26.9,29.86,East,91,1.0,15.0,58,0.00,,,0.00,Wunderground v.1.15,2013-02-19 19:45:00,
2013-02-19 14:55:00,40.7,27.5,29.85,East,93,1.0,15.0,59,0.00,,,0.00,Wunderground v.1.15,2013-02-19 19:55:00,
2013-02-19 15:05:00,41.0,27.8,29.84,East,93,0.0,15.0,59,0.00,,,0.00,Wunderground v.1.15,2013-02-19 20:05:00,
2013-02-19 15:15:00,41.1,28.3,29.83,East,92,0.0,15.0,60,0.00,,,0.00,Wunderground v.1.15,2013-02-19 20:15:00,
2013-02-19 16:15:00,41.6,29.9,29.79,East,84,0.0,15.0,63,0.00,,,0.00,Wunderground v.1.15,2013-02-19 21:15:00,
2013-02-19 16:20:00,41.6,29.9,29.78,East,85,0.0,15.0,63,0.00,,,0.00,Wunderground v.1.15,2013-02-19 21:20:00,
2013-02-19 16:30:00,41.1,30.2,29.78,East,84,0.0,15.0,65,0.00,,,0.00,Wunderground v.1.15,2013-02-19 21:30:00,
2013-02-19 16:40:00,40.0,31.0,29.78,West,272,1.0,1.0,70,0.00,,,0.00,Wunderground v.1.15,2013-02-19 21:40:00,
2013-02-19 16:45:00,39.9,31.6,29.78,WSW,250,0.0,15.0,72,0.00,,,0.00,Wunderground v.1.15,2013-02-19 21:45:00,
2013-02-19 16:55:00,39.5,31.9,29.77,WSW,257,0.0,15.0,74,0.00,,,0.00,Wunderground v.1.15,2013-02-19 21:55:00,
2013-02-19 17:05:00,39.6,32.7,29.77,East,84,1.0,15.0,76,0.00,,,0.00,Wunderground v.1.15,2013-02-19 22:05:00,
2013-02-19 17:10:00,39.9,32.9,29.77,NNW,342,0.0,15.0,76,0.00,,,0.00,Wunderground v.1.15,2013-02-19 22:10:00,
2013-02-19 17:20:00,40.9,34.6,29.77,ENE,60,1.0,1.0,78,0.00,,,0.00,Wunderground v.1.15,2013-02-19 22:20:00,
2013-02-19 17:30:00,41.3,35.0,29.76,South,175,1.0,15.0,78,0.00,,,0.00,Wunderground v.1.15,2013-02-19 22:30:00,
2013-02-19 17:35:00,41.6,35.6,29.76,SW,225,2.0,15.0,79,0.00,,,0.00,Wunderground v.1.15,2013-02-19 22:35:00,
2013-02-19 17:45:00,41.6,35.6,29.75,East,98,2.0,2.0,79,0.00,,,0.00,Wunderground v.1.15,2013-02-19 22:45:00,
2013-02-19 17:50:00,41.4,35.4,29.75,WSW,253,1.0,1.0,79,0.00,,,0.00,Wunderground v.1.15,2013-02-19 22:50:00,
2013-02-19 18:00:00,41.1,36.3,29.74,SSW,195,1.0,15.0,83,0.00,,,0.00,Wunderground v.1.15,2013-02-19 23:00:00,
2013-02-19 18:10:00,40.5,36.0,29.74,SSW,211,0.0,15.0,84,0.00,,,0.01,Wunderground v.1.15,2013-02-19 23:10:00,
2013-02-19 18:20:00,39.6,36.0,29.73,SSW,211,0.0,15.0,87,0.00,,,0.01,Wunderground v.1.15,2013-02-19 23:20:00,
2013-02-19 18:30:00,38.7,35.7,29.72,SSW,211,0.0,15.0,89,0.00,,,0.01,Wunderground v.1.15,2013-02-19 23:30:00,
2013-02-19 18:40:00,38.1,35.4,29.72,SSW,211,0.0,15.0,90,0.00,,,0.02,Wunderground v.1.15,2013-02-19 23:40:00,
2013-02-19 18:50:00,37.5,35.1,29.71,SSW,211,0.0,15.0,91,0.00,,,0.02,Wunderground v.1.15,2013-02-19 23:50:00,
2013-02-19 19:00:00,37.1,35.0,29.70,SSW,211,0.0,15.0,92,0.00,,,0.03,Wunderground v.1.15,2013-02-20 00:00:00,
2013-02-19 19:05:00,37.0,34.9,29.70,SSW,211,0.0,15.0,92,0.00,,,0.03,Wunderground v.1.15,2013-02-20 00:05:00,
2013-02-19 19:15:00,36.8,35.0,29.69,SSW,211,0.0,15.0,93,0.04,,,0.04,Wunderground v.1.15,2013-02-20 00:15:00,
2013-02-19 19:25:00,36.7,34.9,29.68,SSW,211,0.0,15.0,93,0.04,,,0.04,Wunderground v.1.15,2013-02-20 00:25:00,
2013-02-19 19:35:00,36.4,34.6,29.68,SSW,211,0.0,15.0,93,0.00,,,0.05,Wunderground v.1.15,2013-02-20 00:35:00,
2013-02-19 19:40:00,36.3,34.7,29.67,SSW,211,0.0,15.0,94,0.08,,,0.06,Wunderground v.1.15,2013-02-20 00:40:00,
2013-02-19 19:50:00,36.2,34.6,29.67,SSW,211,0.0,15.0,94,0.05,,,0.06,Wunderground v.1.15,2013-02-20 00:50:00,
2013-02-19 20:00:00,36.3,34.7,29.67,SSW,211,0.0,15.0,94,0.04,,,0.07,Wunderground v.1.15,2013-02-20 01:00:00,
2013-02-19 20:05:00,36.2,34.6,29.65,SSW,211,0.0,15.0,94,0.06,,,0.08,Wunderground v.1.15,2013-02-20 01:05:00,
2013-02-19 20:15:00,36.0,34.7,29.65,SSW,211,0.0,15.0,95,0.06,,,0.09,Wunderground v.1.15,2013-02-20 01:15:00,
2013-02-19 20:25:00,36.0,34.7,29.64,SSW,211,0.0,15.0,95,0.07,,,0.10,Wunderground v.1.15,2013-02-20 01:25:00,
2013-02-19 20:35:00,36.1,34.8,29.63,SSW,211,0.0,15.0,95,0.04,,,0.10,Wunderground v.1.15,2013-02-20 01:35:00,
2013-02-19 20:45:00,36.1,34.8,29.62,SSW,211,0.0,15.0,95,0.00,,,0.10,Wunderground v.1.15,2013-02-20 01:45:00,
2013-02-19 20:55:00,36.1,34.8,29.63,SSW,211,0.0,15.0,95,0.00,,,0.11,Wunderground v.1.15,2013-02-20 01:55:00,
2013-02-19 21:00:00,36.2,34.9,29.63,SSW,211,0.0,15.0,95,0.00,,,0.11,Wunderground v.1.15,2013-02-20 02:00:00,
2013-02-19 21:10:00,36.1,34.8,29.60,SSW,211,0.0,15.0,95,0.04,,,0.12,Wunderground v.1.15,2013-02-20 02:10:00,
2013-02-19 21:20:00,35.9,34.6,29.58,SSW,211,0.0,15.0,95,0.07,,,0.13,Wunderground v.1.15,2013-02-20 02:20:00,
2013-02-19 21:30:00,35.7,34.7,29.58,SSW,211,0.0,15.0,96,0.06,,,0.14,Wunderground v.1.15,2013-02-20 02:30:00,
2013-02-19 21:35:00,36.1,35.1,29.57,SSW,211,0.0,15.0,96,0.06,,,0.14,Wunderground v.1.15,2013-02-20 02:35:00,
2013-02-19 21:45:00,36.1,35.1,29.59,SSW,211,0.0,15.0,96,0.00,,,0.14,Wunderground v.1.15,2013-02-20 02:45:00,
2013-02-19 21:50:00,36.1,35.1,29.59,SSW,211,0.0,15.0,96,0.00,,,0.14,Wunderground v.1.15,2013-02-20 02:50:00,
2013-02-19 22:00:00,36.2,35.2,29.58,SSW,211,0.0,15.0,96,0.00,,,0.14,Wunderground v.1.15,2013-02-20 03:00:00,
2013-02-19 22:10:00,36.3,35.3,29.57,SSW,211,0.0,15.0,96,0.00,,,0.14,Wunderground v.1.15,2013-02-20 03:10:00,
2013-02-19 22:20:00,36.1,35.1,29.57,SSW,211,0.0,15.0,96,0.00,,,0.14,Wunderground v.1.15,2013-02-20 03:20:00,
2013-02-19 22:30:00,36.1,35.1,29.57,SSW,211,0.0,15.0,96,0.00,,,0.15,Wunderground v.1.15,2013-02-20 03:30:00,
2013-02-19 22:50:00,36.3,35.3,29.56,SSW,211,0.0,15.0,96,0.00,,,0.16,Wunderground v.1.15,2013-02-20 03:50:00,
2013-02-19 23:00:00,36.1,35.1,29.55,SSW,211,0.0,15.0,96,0.00,,,0.16,Wunderground v.1.15,2013-02-20 04:00:00,
2013-02-19 23:10:00,35.9,34.9,29.54,SSW,211,0.0,15.0,96,0.00,,,0.16,Wunderground v.1.15,2013-02-20 04:10:00,
2013-02-19 23:20:00,35.8,34.8,29.54,SSW,211,0.0,15.0,96,0.00,,,0.16,Wunderground v.1.15,2013-02-20 04:20:00,
2013-02-19 23:30:00,35.8,35.0,29.54,SSW,211,0.0,15.0,97,0.00,,,0.16,Wunderground v.1.15,2013-02-20 04:30:00,
2013-02-19 23:40:00,35.9,35.1,29.53,SSW,211,0.0,15.0,97,0.00,,,0.16,Wunderground v.1.15,2013-02-20 04:40:00,
2013-02-19 23:45:00,35.9,35.1,29.53,SSW,211,0.0,15.0,97,0.00,,,0.16,Wunderground v.1.15,2013-02-20 04:45:00,
2013-02-19 23:55:00,36.1,35.3,29.53,SSW,211,0.0,15.0,97,0.00,,,0.16,Wunderground v.1.15,2013-02-20 04:55:00,